Weather Roundup
Issued by NWS Corpus Christi, TX

Home | Current Version | Previous Version | Text Only | Print | Product List | Glossary On
Versions: 1 2 3 4 5 6 7 8 9 10 11 12 13 14 15 16 17 18 19 20 21 22 23 24 25 26 27 28 29 30 31 32 33 34 35 36 37 38 39 40 41 42 43 44 45 46 47 48 49 50
000
ASUS44 KCRP 230510
HRRCRP

SOUTH TEXAS REGIONAL WEATHER ROUNDUP
NATIONAL WEATHER SERVICE CORPUS CHRISTI TX
1200 AM CDT SAT AUG 23 2014


TXZ229>244-230600-
...CORPUS CHRISTI AREA OBSERVATIONS...

CITY           SKY/WX    TMP DP  RH WIND       PRES   REMARKS
CORPUS CHRISTI PTCLDY    81  74  79 SE9       29.99F
NAS CORPUS CHR CLEAR     83  77  82 SE14      29.99F HX  92
ROCKPORT       CLEAR     84  76  76 SE13      30.00F HX  93
KINGSVILLE NAS CLEAR     81  77  88 SE8       29.99F
ALICE          CLEAR     80  75  84 SE10      29.99F
FALFURRIAS     CLEAR     83  75  77 SE6       29.99F HX  90
$$

...VICTORIA AREA OBSERVATIONS...

CITY           SKY/WX    TMP DP  RH WIND       PRES   REMARKS
VICTORIA       CLEAR     80  76  87 SE9       30.01F
BEEVILLE       FAIR      80  75  85 SE5       30.01S
PLEASANTON     CLEAR     81  71  70 SE12G17   30.01F
SAN ANTONIO    CLEAR     82  69  64 S17       30.03R
$$

...LAREDO AREA OBSERVATIONS...

CITY           SKY/WX    TMP DP  RH WIND       PRES   REMARKS
LAREDO         CLEAR     85  70  60 SE18G25   30.00S
COTULLA        CLEAR     84  66  54 SE15      29.99R
DEL RIO        CLEAR     88  50  27 SE12      29.94R
MCALLEN        CLEAR     82  75  79 SE13      30.00R
HEBBRONVILLE   CLEAR     80  71  74 SE10      30.03R
$$

...OTHER TEXAS OBSERVATIONS...

CITY           SKY/WX    TMP DP  RH WIND       PRES   REMARKS
BROWNSVILLE    CLEAR     81  77  88 SE5       30.00F
HOUSTON        PTCLDY    81  74  79 S3        30.02F
COL. STATION   CLEAR     83  72  69 S13       30.01S
AUSTIN         CLEAR     83  70  64 S13       30.00R
WACO           CLEAR     87  68  52 S16       29.97S HX  90
FORT WORTH     CLEAR     87  66  49 S12       29.95F
WICHITA FALLS  CLEAR     84  54  35 S12       29.93R
LUBBOCK        PTCLDY    79  58  48 W7        30.06R
EL PASO        MOCLDY    73  63  70 SW9       30.07F
$$

...MARINE OBSERVATIONS...

STATION/POSITION TIME  SKY/WX   TEMP    WIND        PRES    VSBY  WAVE   SWELL
                                AIR SEA DIR/SP/G                  HT/PER HT/PER
                 (UTC)          (F)     (DEG/KT/KT) (MB)    (MI)  (FT/S) (FT/S)
PORT ARANSAS     0500            82 85  130/ 10/ 11 1016.4F
BUOY 90 E PORT A 0500            85 85  140/ 12/ 14 1016.7F         2/ 6   2/ 6
BUOY 45 SE BAFFI 0500            85 85  140/ 14/ 16 1015.4R         3/ 4
BUOY 200 E PT IS 0500            85 86  110/ 14/ 16 1016.3F         2/ 4
BUOY 15 E GALVES NOT AVBL
$$



USA.gov is the U.S. government's official web portal to all federal, state and local government web resources and services.